Voltar ao catálogo

FENGYUN 1C DEB

AtivoPO
NORAD 30763·DEBRIS·🇨🇳 China

Lançado May 10, 1999 de Taiyuan Satellite Launch Center

Loading…

Próximas Passagens (próximas 24 horas)

TLE

AtualizadoSource: Space-Track

Época: Sep 14, 2026, 21:50 UTC

1 30763U 99025ATZ 26257.91035131  .00019912  00000-0  31462-2 0  9999
2 30763  98.8868 357.4228 0020095 141.3204 288.7865 14.72232321 11913

Acompanhe FENGYUN 1C DEB em tempo real com AllMySat

Download on the App Store